Wind_Speed
20 19 18 16 14 12 10 8 6 3 1 1 4 6 7 8 11 12 12 12 12 12 12 12 12 12 12 12 12 11 10 10 10 10 9 9 9 9 8 7 6 6 6 5
22 20 19 18 17 15 13 11 9 7 5 2 1 2 4 6 8 9 10 11 10 10 10 10 10 11 12 12 11 11 11 11 10 9 9 9 8 8 8 8 6 6 5 5
23 21 21 20 18 16 15 14 11 9 7 4 2 1 2 3 5 6 8 9 10 10 9 10 9 10 10 11 11 10 10 11 10 9 9 8 8 7 7 7 7 6 6 5
25 24 23 22 20 18 17 15 14 12 11 8 5 4 2 3 3 5 6 7 8 8 8 9 8 8 8 9 9 10 10 10 10 9 9 8 7 7 7 7 7 6 7 6
28 26 26 24 22 21 19 18 16 15 14 12 9 7 4 3 3 4 5 6 7 7 6 7 8 7 7 8 9 9 9 9 10 9 9 8 7 6 6 7 6 6 6 6
30 29 28 26 24 24 22 21 19 18 18 16 12 10 7 5 5 5 5 5 6 6 6 6 7 7 7 8 8 8 8 8 9 9 9 8 8 7 7 7 7 6 6 6
31 31 30 29 27 26 25 24 23 22 21 18 15 13 9 7 7 7 7 6 6 5 5 4 5 5 6 6 7 7 7 8 8 8 8 8 8 8 7 7 7 6 5 5
32 31 30 30 29 28 28 26 25 24 22 20 18 16 12 10 9 9 8 7 6 6 5 4 4 4 5 5 6 6 6 7 7 7 7 7 7 7 7 7 6 5 5 6
33 31 30 30 30 30 30 28 27 26 25 24 22 19 16 13 12 12 10 8 7 6 5 4 3 3 4 4 5 6 6 6 7 7 7 7 7 7 7 7 6 6 6 7
34 33 32 32 31 32 31 30 30 29 28 26 25 22 19 16 14 13 11 8 8 7 6 5 4 4 4 4 5 5 6 6 7 7 7 7 7 7 7 7 7 7 7 8
33 34 34 34 34 33 33 33 32 31 30 28 27 24 20 17 16 15 13 10 9 8 8 7 6 6 6 6 6 6 6 6 7 7 7 8 8 8 7 7 7 8 8 9
32 34 34 35 35 35 35 34 33 33 31 30 29 25 22 20 18 18 16 13 11 11 10 9 8 7 7 7 6 7 7 7 7 7 8 8 9 9 9 8 8 9 9 10
33 34 34 35 36 36 36 35 34 33 32 31 30 27 24 22 21 20 18 16 15 14 13 11 11 10 9 8 8 8 8 8 8 8 9 9 10 9 9 10 10 11 11 11
33 35 35 35 35 35 35 35 34 34 33 32 30 28 26 24 23 21 19 19 17 16 15 14 13 12 11 10 10 10 10 10 10 10 10 10 11 11 11 11 11 12 12 12
35 35 35 35 34 35 35 35 34 34 33 33 31 30 27 25 24 23 21 20 19 18 17 16 15 15 14 13 13 12 12 12 12 11 12 12 12 12 13 13 13 12 13 13
35 36 36 36 35 35 35 35 34 33 33 33 33 31 29 28 26 24 23 22 21 20 19 17 16 16 16 15 15 14 14 13 14 14 14 14 14 14 15 14 14 14 14 15
36 37 37 36 36 35 36 35 35 34 34 34 34 32 31 30 28 27 25 24 22 21 20 18 18 17 17 17 17 16 16 16 16 16 16 16 16 16 16 16 16 16 16 17
35 36 37 37 36 37 35 33 34 34 34 34 34 34 33 32 29 27 26 25 23 22 21 21 21 20 20 19 18 18 18 19 18 18 18 18 18 18 18 18 17 17 18 18
34 36 37 37 37 37 35 34 33 33 34 34 33 33 33 32 31 29 27 25 24 24 25 24 23 22 22 22 21 20 21 21 21 21 20 20 19 19 19 18 18 19 19 20
34 35 37 37 36 36 34 34 33 34 34 33 33 32 32 32 32 30 29 28 27 27 27 26 26 25 24 24 23 22 22 23 23 23 22 22 21 21 21 20 21 21 21 22
34 35 36 37 37 37 35 34 34 34 33 33 33 32 32 33 32 30 30 30 29 29 28 28 28 27 27 26 26 24 24 24 24 24 24 24 24 24 23 22 23 23 23 23
35 36 35 35 36 37 35 35 35 34 32 32 33 33 33 33 33 32 31 31 30 29 28 28 28 28 28 27 26 25 25 25 24 24 25 25 25 25 24 24 25 25 25 25
35 36 36 36 36 35 35 35 34 33 33 33 32 32 34 34 33 33 33 31 30 29 29 29 28 29 29 28 26 26 26 26 25 25 26 26 26 26 26 26 27 26 26 26
36 35 35 36 35 35 36 35 34 33 33 34 34 33 33 33 33 33 32 32 31 30 30 29 29 29 29 28 28 28 28 27 27 26 26 27 28 27 27 28 28 28 27 28
35 35 35 35 35 36 36 36 35 34 34 34 34 33 33 33 33 33 33 33 32 32 31 30 30 30 29 28 29 30 29 28 28 28 28 29 29 29 29 28 28 28 28 28
34 34 36 35 35 36 36 37 36 35 32 32 33 33 33 33 32 33 33 34 33 33 32 31 31 31 31 30 29 30 30 29 29 30 31 31 31 31 30 28 28 28 28 28
Wind_Direction
219 218 218 221 223 226 233 238 240 237 242 38 52 50 48 40 33 31 31 32 35 39 41 44 48 51 54 57 62 63 61 59 57 59 63 65 66 64 63 61 60 64 62 55
221 219 219 221 223 224 228 233 242 243 235 245 359 28 37 33 28 29 27 29 31 35 40 42 47 50 52 54 57 58 55 53 52 54 59 63 63 62 61 60 58 56 55 52
225 221 220 221 223 223 226 230 236 239 242 249 270 308 355 12 18 20 21 23 24 27 33 36 44 50 51 50 52 54 53 51 50 53 55 60 59 60 58 53 51 49 47 46
222 222 222 222 223 225 225 228 233 240 245 250 263 266 279 330 353 359 5 14 17 24 30 33 44 48 49 47 46 44 46 47 47 47 45 51 54 55 52 46 47 47 45 40
220 222 223 224 224 227 227 230 233 240 244 249 256 262 268 283 315 329 348 1 3 9 21 31 41 46 45 46 43 42 41 39 40 37 33 35 40 44 44 39 38 34 32 32
221 222 224 225 225 226 228 231 234 239 245 248 254 258 261 277 291 295 316 336 347 347 4 26 35 37 39 42 41 40 37 36 35 31 29 30 34 35 35 32 29 27 24 18
222 223 223 224 226 228 229 230 233 238 243 247 251 255 256 266 278 281 290 305 322 331 344 9 22 26 29 33 34 31 32 31 27 22 25 29 29 25 22 19 16 15 7 359
224 223 224 226 227 229 231 233 236 241 245 248 251 254 255 261 271 278 281 282 294 312 319 337 358 9 15 18 23 22 23 22 19 16 15 18 15 11 9 6 2 356 353 347
225 223 225 227 228 230 230 232 237 243 246 247 252 254 255 257 265 274 280 275 284 290 297 309 319 334 357 4 1 3 5 9 8 5 7 6 4 360 356 354 354 350 341 333
227 224 224 226 228 229 231 233 236 240 244 247 250 252 254 257 263 267 270 262 270 278 280 289 300 302 317 332 334 342 345 352 353 352 351 350 348 345 344 342 342 340 338 331
229 226 224 226 228 229 231 233 236 240 243 246 251 253 254 257 259 259 262 260 264 271 273 277 283 285 292 310 316 317 327 337 342 340 340 341 342 342 337 330 329 330 328 326
231 230 227 228 230 231 233 235 237 240 244 247 251 254 255 257 258 259 259 258 260 266 271 272 274 276 281 293 302 305 311 322 328 330 329 331 334 335 338 331 324 323 323 323
231 232 230 229 230 231 232 234 237 240 243 245 248 250 253 256 257 259 260 260 257 260 266 266 268 268 273 281 288 295 301 306 313 318 318 320 324 326 330 327 322 320 320 321
233 234 234 234 233 234 234 235 237 240 241 244 247 249 249 252 254 257 259 259 257 258 261 267 267 267 268 273 282 292 296 299 303 308 311 315 316 315 316 319 319 317 317 319
234 236 235 236 236 236 236 236 238 241 243 245 247 249 250 249 251 253 256 256 258 259 261 263 265 269 267 267 276 286 290 291 296 300 304 308 311 311 311 312 312 312 314 316
234 237 236 236 237 238 238 236 236 240 243 245 247 248 249 249 249 252 255 254 255 257 259 263 265 265 261 263 269 279 282 284 290 294 297 302 307 309 308 307 306 307 308 311
236 237 238 238 237 238 239 239 240 241 243 245 246 247 249 250 250 252 254 254 255 257 259 262 266 265 263 262 267 272 276 279 284 289 294 300 302 304 303 303 302 303 304 306
236 237 239 239 238 239 241 241 241 243 244 245 246 246 249 250 249 249 250 251 252 257 258 259 260 259 258 258 262 267 272 277 283 287 290 294 296 296 297 298 299 299 300 303
235 237 238 238 239 240 241 241 240 242 242 244 246 245 247 247 246 246 248 250 252 255 257 259 257 256 257 258 260 265 270 274 279 283 285 288 289 291 292 292 294 295 298 300
236 237 238 239 240 240 241 241 242 244 244 243 244 245 245 246 246 246 249 252 253 254 254 255 256 256 257 258 260 264 268 272 275 278 281 283 285 287 287 287 290 292 295 296
237 237 239 240 241 241 241 242 243 244 245 245 245 244 245 246 247 247 249 252 252 251 253 254 254 254 255 259 261 263 267 270 272 274 278 282 285 288 287 288 291 292 293 294
236 237 238 241 242 242 242 243 244 246 246 245 245 245 245 245 246 246 248 250 250 249 253 255 255 255 256 261 262 263 266 268 270 273 277 279 282 284 286 287 288 289 291 293
237 237 239 240 242 242 243 243 244 244 244 245 246 245 245 245 245 246 248 251 250 250 252 255 256 257 258 262 263 267 268 266 268 271 275 279 281 282 283 284 284 287 289 291
238 239 238 239 240 241 242 243 243 244 245 245 246 246 245 245 244 245 247 249 250 250 253 254 256 258 261 263 266 268 269 268 270 272 274 278 280 280 281 282 283 285 286 289
237 238 238 239 239 240 242 243 243 245 246 245 244 244 244 245 244 244 246 248 250 251 253 253 256 259 262 263 267 269 269 269 272 273 273 275 278 280 281 280 282 283 284 287
237 238 238 239 239 241 242 244 244 245 245 245 243 243 243 243 242 243 245 247 248 250 253 256 258 261 264 266 267 268 270 272 275 275 275 276 277 277 278 281 282 283 285 285
Height
5896 5899 5901 5903 5905 5906 5907 5908 5909 5910 5910 5910 5910 5910 5910 5909 5908 5907 5906 5905 5903 5902 5901 5899 5898 5896 5895 5894 5892 5892 5891 5890 5889 5888 5887 5887 5886 5886 5885 5885 5884 5883 5883 5882
5894 5897 5900 5901 5902 5904 5905 5907 5908 5909 5910 5910 5910 5911 5910 5910 5909 5909 5908 5907 5905 5904 5902 5901 5900 5898 5897 5896 5895 5894 5893 5892 5891 5890 5889 5889 5888 5887 5887 5886 5885 5885 5884 5884
5891 5895 5896 5898 5900 5902 5904 5906 5907 5908 5909 5910 5910 5911 5911 5911 5910 5910 5909 5908 5907 5905 5904 5902 5901 5900 5899 5898 5897 5896 5895 5894 5892 5891 5891 5890 5889 5889 5888 5887 5886 5886 5885 5885
5887 5890 5893 5895 5897 5900 5902 5904 5905 5906 5907 5908 5910 5911 5911 5911 5911 5910 5910 5909 5908 5907 5905 5903 5902 5901 5900 5900 5899 5897 5896 5895 5894 5893 5892 5892 5891 5890 5889 5888 5887 5887 5886 5886
5883 5886 5889 5892 5895 5898 5900 5902 5903 5904 5905 5907 5908 5909 5911 5910 5910 5910 5910 5909 5908 5908 5906 5904 5903 5902 5901 5901 5900 5899 5898 5897 5895 5895 5893 5892 5891 5891 5890 5889 5888 5888 5887 5886
5879 5882 5885 5889 5892 5894 5896 5899 5900 5901 5903 5904 5906 5907 5909 5910 5910 5910 5910 5909 5909 5908 5906 5905 5904 5903 5902 5901 5900 5900 5899 5898 5897 5896 5895 5893 5892 5891 5891 5890 5889 5888 5887 5887
5874 5877 5881 5884 5887 5890 5892 5895 5897 5898 5899 5902 5904 5905 5908 5908 5909 5909 5909 5909 5908 5907 5906 5905 5904 5903 5903 5902 5901 5900 5899 5898 5897 5896 5895 5894 5893 5892 5891 5891 5890 5889 5888 5887
5868 5873 5876 5879 5883 5885 5888 5892 5894 5896 5897 5899 5901 5902 5906 5907 5907 5907 5907 5907 5907 5907 5906 5905 5904 5903 5903 5902 5901 5901 5900 5899 5898 5897 5896 5895 5894 5893 5892 5891 5890 5889 5888 5887
5863 5868 5872 5875 5878 5881 5884 5886 5890 5892 5893 5895 5897 5899 5902 5904 5905 5905 5906 5906 5905 5905 5905 5904 5903 5903 5902 5902 5901 5901 5900 5899 5898 5897 5896 5895 5894 5893 5892 5891 5890 5889 5888 5886
5857 5862 5866 5869 5872 5875 5879 5882 5885 5886 5888 5890 5893 5895 5898 5900 5902 5903 5903 5903 5903 5903 5903 5903 5902 5902 5901 5901 5901 5900 5899 5898 5897 5896 5896 5895 5894 5893 5892 5890 5889 5888 5887 5886
5851 5855 5860 5863 5866 5869 5873 5876 5878 5881 5884 5886 5888 5893 5895 5897 5898 5900 5900 5901 5901 5901 5901 5901 5901 5900 5900 5900 5899 5899 5898 5897 5896 5896 5895 5894 5893 5892 5890 5889 5888 5887 5886 5884
5845 5849 5852 5857 5860 5864 5867 5870 5873 5877 5879 5881 5884 5890 5891 5893 5894 5895 5897 5898 5899 5899 5899 5899 5898 5898 5898 5898 5898 5897 5897 5896 5895 5895 5894 5893 5892 5891 5889 5888 5887 5886 5884 5883
5838 5842 5846 5849 5855 5857 5859 5863 5867 5870 5873 5875 5878 5885 5886 5888 5889 5891 5893 5894 5895 5896 5896 5896 5896 5896 5896 5895 5895 5895 5895 5894 5894 5893 5892 5891 5890 5889 5888 5887 5885 5884 5883 5881
5832 5835 5840 5843 5847 5850 5853 5857 5860 5864 5866 5869 5873 5878 5881 5883 5885 5887 5888 5890 5891 5892 5893 5893 5893 5893 5893 5893 5893 5893 5893 5892 5892 5891 5890 5889 5888 5887 5886 5885 5883 5882 5880 5879
5825 5828 5832 5837 5841 5844 5847 5850 5854 5857 5860 5864 5868 5871 5875 5878 5880 5882 5884 5885 5887 5888 5889 5889 5890 5890 5890 5890 5890 5890 5890 5890 5889 5888 5888 5887 5886 5885 5883 5882 5881 5880 5878 5876
5818 5821 5825 5829 5833 5836 5839 5843 5847 5850 5853 5857 5861 5864 5868 5871 5874 5876 5878 5880 5882 5883 5884 5885 5885 5885 5886 5887 5887 5887 5887 5886 5886 5885 5885 5883 5882 5882 5880 5879 5878 5877 5875 5874
5811 5815 5818 5822 5826 5828 5831 5836 5840 5843 5846 5850 5853 5859 5861 5864 5868 5870 5872 5874 5876 5877 5878 5879 5880 5881 5881 5882 5883 5883 5883 5883 5882 5882 5881 5880 5879 5878 5877 5876 5875 5873 5872 5870
5804 5807 5810 5814 5819 5820 5828 5830 5833 5836 5839 5842 5846 5851 5854 5857 5860 5863 5866 5868 5870 5871 5873 5874 5875 5875 5876 5877 5877 5878 5878 5878 5878 5878 5877 5876 5875 5874 5873 5872 5871 5869 5868 5866
5796 5800 5803 5806 5809 5813 5819 5822 5825 5828 5832 5836 5839 5843 5846 5849 5852 5856 5859 5861 5863 5865 5866 5868 5869 5869 5870 5871 5872 5872 5873 5873 5873 5872 5872 5871 5870 5869 5868 5867 5866 5865 5863 5862
5789 5792 5796 5798 5802 5805 5812 5815 5818 5822 5825 5829 5832 5835 5838 5841 5845 5849 5852 5854 5856 5858 5859 5860 5862 5863 5864 5865 5865 5866 5866 5867 5867 5866 5866 5865 5865 5864 5863 5862 5860 5859 5858 5857
5780 5784 5787 5790 5793 5798 5803 5807 5811 5815 5819 5821 5824 5827 5830 5834 5838 5842 5844 5846 5848 5850 5851 5853 5854 5855 5856 5857 5858 5859 5859 5860 5860 5860 5859 5859 5859 5858 5857 5856 5855 5853 5852 5851
5772 5775 5779 5783 5786 5792 5795 5798 5802 5806 5810 5813 5816 5819 5822 5825 5829 5832 5835 5837 5839 5841 5843 5844 5846 5847 5848 5849 5850 5851 5852 5852 5853 5853 5852 5852 5852 5851 5850 5849 5849 5847 5846 5844
5764 5768 5771 5776 5781 5784 5787 5790 5794 5797 5801 5805 5808 5811 5814 5817 5820 5824 5826 5829 5831 5833 5835 5836 5838 5839 5840 5842 5843 5844 5843 5844 5845 5845 5845 5845 5844 5844 5843 5843 5842 5840 5839 5838
5755 5759 5763 5767 5771 5775 5779 5782 5786 5789 5793 5796 5800 5803 5805 5808 5812 5815 5818 5820 5823 5825 5827 5829 5830 5832 5832 5834 5835 5836 5836 5836 5836 5837 5837 5837 5837 5836 5835 5835 5834 5833 5832 5831
5747 5751 5754 5758 5763 5766 5770 5774 5777 5781 5784 5787 5791 5794 5797 5800 5803 5807 5809 5812 5814 5816 5818 5820 5822 5823 5824 5825 5826 5827 5827 5827 5827 5828 5829 5829 5828 5828 5827 5826 5826 5825 5824 5823
5739 5743 5747 5751 5755 5758 5762 5765 5769 5772 5776 5779 5782 5785 5788 5791 5794 5798 5801 5803 5805 5808 5810 5811 5813 5814 5816 5817 5817 5818 5819 5819 5820 5820 5820 5820 5820 5819 5819 5818 5817 5817 5816 5815